Location: Hohe Wand Waldeggerhaus
(47.8500°N, 16.0440°E)
Time: 12:43:28
(UTC+02:00)

ISS - Visible Passes

Search period start: 25 June 2021 00:00
Search period end: 05 July 2021 00:00
Orbit: 419 x 422 km, 51.6° (Epoch: 25 June)

Date Brightness Start Highest point End Pass type
(mag) Time Alt. Az. Time Alt. Az. Time Alt. Az.
27 Jun -1.3 04:15:53 10° S 04:17:50 15° SE 04:19:47 10° E visible
29 Jun -2.6 04:16:43 10° SSW 04:19:48 33° SE 04:22:53 10° ENE visible
30 Jun -2.1 03:30:46 14° S 03:32:40 22° SE 03:35:22 10° E visible
01 Jul -1.6 02:45:08 15° SE 02:45:32 15° SE 02:47:32 10° E visible
01 Jul -3.7 04:18:31 10° WSW 04:21:53 75° SSE 04:25:16 10° ENE visible
02 Jul -3.4 03:32:24 19° SW 03:34:36 51° SSE 03:37:54 10° ENE visible
03 Jul -2.9 02:46:38 30° S 02:47:20 34° SE 02:50:26 10° ENE visible
03 Jul -3.3 04:20:42 10° W 04:24:03 60° NNW 04:27:24 10° ENE visible
04 Jul -2.0 02:00:49 21° ESE 02:00:49 21° ESE 02:02:50 10° E visible
04 Jul -3.7 03:33:46 14° WSW 03:36:39 79° NNW 03:40:02 10° ENE visible
